Location: Delta State University
(33.7460°N, 90.7320°W)
Time: 11:58:14
(UTC-05:00)

Iridium 13 - Visible Passes

Search period start: 27 August 2016 00:00
Search period end: 06 September 2016 00:00
Orbit: 776 x 779 km, 86.4° (Epoch: 27 August)

Date Brightness Start Highest point End Pass type
(mag) Time Alt. Az. Time Alt. Az. Time Alt. Az.
27 Aug 6.0 21:20:25 10° NNE 21:24:57 41° ENE 21:24:57 41° ENE visible
27 Aug 7.9 23:02:17 10° NW 23:05:26 18° WNW 23:05:26 18° WNW visible
28 Aug 6.7 20:47:40 10° NNE 20:51:40 22° E 20:51:45 22° E visible
28 Aug 6.9 22:27:44 10° NNW 22:32:14 33° W 22:32:14 33° W visible
29 Aug 7.4 20:16:29 10° ENE 20:17:50 11° ENE 20:18:34 11° E visible
29 Aug 5.7 21:53:49 10° N 21:58:59 66° W 21:59:03 66° W visible
30 Aug 5.4 21:20:19 10° N 21:25:29 63° E 21:25:55 61° ESE visible
30 Aug 8.3 23:03:54 10° WNW 23:05:32 11° WNW 23:06:24 11° W visible
31 Aug 6.2 20:47:13 10° NNE 20:51:52 32° E 20:52:48 30° ESE visible
31 Aug 7.5 22:28:20 10° NNW 22:32:20 23° W 22:33:18 22° W visible
01 Sep 7.0 20:14:48 10° NE 20:18:08 17° ENE 20:19:43 15° E visible
01 Sep 6.5 21:54:05 10° NNW 21:59:00 44° W 22:00:13 37° WSW visible
02 Sep 5.4 21:20:21 10° N 21:25:34 86° W 21:27:11 46° S visible
03 Sep 5.7 20:46:59 10° N 20:52:02 48° E 20:54:12 30° SE visible
03 Sep 8.1 22:29:19 10° NW 22:32:15 15° W 22:34:42 11° WSW visible
04 Sep 6.6 20:14:06 10° NNE 20:18:22 25° E 20:21:17 16° SE visible
04 Sep 7.2 21:54:32 10° NNW 21:58:59 29° W 22:01:48 18° SW visible
05 Sep 7.3 19:42:17 10° NE 19:44:34 13° ENE 19:46:51 10° ESE visible
05 Sep 6.0 21:20:31 10° N 21:25:38 57° W 21:28:57 21° SSW visible
